Flag for Nepal Weather past 2 weeks in Pokhara, Nepal

Now
45 °F

Passing clouds.


Feels Like: 45 °F
Forecast: 42 / 69 °F
Wind: No wind

Location: Kathmandu Airport

Current Time: Dec 20, 2014 at 11:29:19 PM

Latest Report: Dec 20, 2014 at 10:35 PM


Visibility: N/A

Pressure: 30.12 "Hg

Humidity: 81%

Dew point: 39 °F

Location of PokharaLocation

Historic Weather in Pokhara — Graph

°F

Pokhara temperature yesterday

Maximum temperature yesterday: 66 °F (at 1:35 PM)
Minimum temperature yesterday: 37 °F (at 5:35 AM)
Average temperature yesterday: 50 °F

Past Weeks' High & Low Weather Summary

 TemperatureHumidityPressure
High68 °F (Dec 6, 1:35 PM)100% (Dec 7, 6:35 AM)30.36 "Hg (Dec 7, 6:35 AM)
Low36 °F (Dec 12, 6:35 AM)16% (Dec 20, 2:35 PM)29.98 "Hg (Dec 7, 3:35 PM)
Average51 °F77%30.15 "Hg
* Reported Dec 5 10:35 PM — Dec 20 10:35 PM, Pokhara, Weather by CustomWeather, © 2014

Note: Actual official high and low records may vary slightly from our data, if they occured in-between our weather recording intervals... More about our weather records

Advertising

Pokhara weather history for previous 24 hours

 ConditionsComfort  
Time TempWeatherWind HumidityBarometerVisibility
10:35 PM
Dec 20
45 °FPassing clouds.No wind81%30.12 "HgN/A
9:35 PM45 °FPassing clouds.3 mph81%30.12 "Hg4 mi
8:35 PM46 °FPassing clouds.6 mph76%30.09 "Hg4 mi
7:35 PM48 °FPassing clouds.3 mph76%30.07 "Hg5 mi
6:35 PM54 °FPassing clouds.3 mph54%30.07 "Hg5 mi
5:35 PM55 °FScattered clouds.5 mph47%30.04 "Hg5 mi
4:35 PM59 °FScattered clouds.9 mph34%30.04 "Hg5 mi
3:35 PM63 °FScattered clouds.8 mph25%30.04 "Hg4 mi
2:35 PM64 °FScattered clouds.6 mph16%30.04 "Hg4 mi
1:35 PM64 °FPassing clouds.No wind30%30.04 "Hg4 mi
12:35 PM63 °FPassing clouds.3 mph25%30.09 "Hg4 mi
11:35 AM57 °FPassing clouds.No wind48%30.12 "Hg4 mi
10:35 AM54 °FHaze.No wind54%30.18 "Hg3 mi
9:35 AM48 °FHaze.No wind66%30.21 "Hg3 mi
8:35 AM43 °FFog.No wind76%30.21 "Hg3 mi
7:35 AM37 °FFog.3 mph87%30.18 "Hg3 mi
6:35 AM36 °FFog.5 mph93%30.15 "Hg3 mi
5:35 AM36 °FPassing clouds.No wind93%30.15 "Hg4 mi
4:35 AM37 °FPassing clouds.3 mph87%30.15 "Hg4 mi
3:35 AM37 °FPassing clouds.No wind93%30.18 "Hg4 mi
2:35 AM37 °FPassing clouds.3 mph93%30.18 "Hg4 mi
1:35 AM39 °FPassing clouds.No wind93%30.21 "Hg4 mi
12:35 AM39 °FPassing clouds.No wind87%30.21 "Hg4 mi
11:35 PM
Dec 19
43 °FPassing clouds.No wind71%30.21 "Hg4 mi
Weather by CustomWeather, © 2014

See weather overviewHow to use our weather pages